CZ-3B R/B, 62805

Orbit data source: Space-Track

CZ-3B R/B, 62805 is space debris in HEO originally from a launch on Thu, 23 Jan 2025 UTC launched from the Xichang Space Center, China (XSC). Debris objects in space refer to the collection of defunct objects orbiting the Earth. Examples of debris include non-operational satellites, rocket bodies, and fragments generated from explosions, collisions, or faulty payload assembly.

Loading next visibility...
Identifier
62805, 2025-017B
Orbit
HEO
Country
Flag of CNCN / PRC
Related business
Manufacturer
CALT
Mission
Spacecraft
Bus & Motor
CZ-3A STAGE 3, Unknown motor
Mass
~2,800 kg wet, ~2,800 kg dry
Launch date (UTC)
2025-01-23 (9 months ago)
Launch vehicle
Unknown
Launch site
Xichang Space Center, China (XSC)
Object type
Payload
Rocket body
Debris
Shape & HBR
Cyl + 1 Nozzle, 4.5 m
Radar Cross Section
32.704 m², Large (>1 m²)

Expand to show TLE details & history
Last TLE update: 9 hours ago

TLE from 9 hours ago
0 CZ-3B R/B
1 62805U 25017B   25292.86677072  .00361812  49708-7  69527-3 0  9997
2 62805  28.0737 214.0207 6529276  46.7490 351.7962  3.37697821  7975
Epoch: 2025-10-19T20:48Z
TLE epoch observation values (Epoch: 2025-10-19T20:48:08.990Z)
Latitude
0.00014°
Longitude
-126.56804°
Altitude
1,059.223 km
Speed
9.271 km/s
True Right ascension
14h 16m 11s
True Declination
0° 00' 01"
Sunlit
Object was in daylight at epoch
Visualization orbit readout
Latitude
Unknown
Longitude
Unknown
Altitude
Unknown
Speed
Unknown
Apparent Right ascension
Unknown
Apparent Declination
Unknown
Sunlit
N/A
Visualization observer readout
Local Sidereal Time
01:02:16
Azimuth
Unknown
Elevation
Unknown
Doppler factor
Unknown
Orbital elements
Apogee altitude
24,647.49 km
Perigee altitude
136.449 km
Semi-major axis
18,770.107 km
Eccentricity
0.65293
Inclination
28.0737°
RAAN
214.0207°
Arg. of periapsis
46.749°
True anomaly
312.97364°
Mean anomaly
351.7962°
Eccentric anomaly
337.44964°
Mean motion
0.844 °/min
Orbital period
426.54 mins
BSTAR
0.00069527
Loading maneuver chart data...
Computing Atmospheric mass density...
Loading historical data...
Loading historical data...
Loading historical data...
Loading historical data...
Loading historical data...
Loading historical data...
Loading historical data...
Other satellites on launch #17 in the year 2025 (2025-01-23 UTC)

Documentation

Showing up to 5 results
|